FW0071 Weather Reports


time (UTC)temp
C
wind
direction
speed
KPH
gust
KPH
rain 1hr
cm
rain 24hr
cm
rain mn
cm
humidity
%
barometer
mb
20260507114512 20 125 0.0 3.2 0.00 0.00 0.00 54 1011.1
20260507113012 20 129 0.0 1.6 0.00 0.00 0.00 55 1011.4
20260507111516 19 111 0.0 0.0 0.00 0.00 0.00 56 1011.6
20260507110008 19 145 0.0 9.7 0.00 0.00 0.00 57 1011.8
20260507104506 18 110 0.0 0.0 0.00 0.00 0.00 58 1012.0
20260507103004 18 120 0.0 3.2 0.00 0.00 0.00 57 1012.1
20260507101502 18 165 0.0 0.0 0.00 0.00 0.00 60 1012.1
20260507100110 17 152 0.0 0.0 0.00 0.00 0.00 64 1012.3
20260507094601 17 153 0.0 0.0 0.00 0.00 0.00 63 1012.4
20260507093056 17 229 0.0 0.0 0.00 0.00 0.00 67 1012.4
20260507091552 16 169 0.0 0.0 0.00 0.00 0.00 66 1012.5
20260507090056 16 134 0.0 3.2 0.00 0.00 0.00 68 1012.4
20260507084553 16 120 0.0 0.0 0.00 0.00 0.00 71 1012.5
20260507083045 15 117 0.0 0.0 0.00 0.00 0.00 74 1012.5
20260507081539 15 148 0.0 4.8 0.00 0.00 0.00 75 1012.4
20260507080045 14 121 0.0 0.0 0.00 0.00 0.00 75 1012.5
20260507074534 13 115 0.0 0.0 0.00 0.00 0.00 77 1012.5
20260507073039 13 100 0.0 6.4 0.00 0.00 0.00 76 1012.6
20260507071530 13 111 0.0 0.0 0.00 0.00 0.00 78 1012.5
20260507070027 12 126 0.0 4.8 0.00 0.00 0.00 79 1012.4
20260507064526 12 115 0.0 0.0 0.00 0.00 0.00 80 1012.4
20260507063026 12 157 0.0 4.8 0.00 0.00 0.00 81 1012.3
20260507061523 11 136 0.0 4.8 0.00 0.00 0.00 82 1012.4
20260507060023 11 105 0.0 0.0 0.00 0.00 0.00 83 1012.3
20260507054521 10 93 0.0 0.0 0.00 0.00 0.00 85 1012.2
20260507053020 10 157 0.0 0.0 0.00 0.00 0.00 85 1012.1
20260507051518 10 159 0.0 0.0 0.00 0.00 0.00 84 1012.0
20260507050036 10 146 0.0 0.0 0.00 0.00 0.00 84 1011.8
20260507044515 10 111 0.0 0.0 0.00 0.00 0.00 84 1011.6
20260507043014 10 111 0.0 0.0 0.00 0.00 0.00 83 1011.8
20260507041514 10 130 0.0 0.0 0.00 0.00 0.00 83 1011.7
20260507040013 10 110 0.0 0.0 0.00 0.00 0.00 83 1011.7
20260507034512 10 115 0.0 0.0 0.00 0.00 0.00 83 1011.7
20260507033012 10 101 0.0 0.0 0.00 0.00 0.00 83 1011.7
20260507031510 10 107 0.0 0.0 0.00 0.00 0.00 82 1011.6
20260507030011 10 108 0.0 0.0 0.00 0.00 0.00 81 1011.7
20260507024509 10 99 0.0 0.0 0.00 0.00 0.00 80 1011.6
20260507023009 10 101 0.0 0.0 0.00 0.00 0.00 80 1011.6
20260507021508 11 111 0.0 0.0 0.00 0.00 0.00 80 1011.5
20260507020007 11 119 0.0 6.4 0.00 0.00 0.00 80 1011.6
20260507014506 11 101 0.0 6.4 0.00 0.00 0.00 81 1011.6
20260507013005 11 86 0.0 0.0 0.00 0.00 0.00 80 1011.6
20260507011608 11 108 0.0 0.0 0.00 0.00 0.00 82 1011.6
20260507010004 10 115 0.0 0.0 0.00 0.00 0.00 82 1011.6
20260507004503 10 154 0.0 0.0 0.00 0.00 0.00 79 1011.7
20260507003100 11 154 0.0 0.0 0.00 0.00 0.00 76 1011.8
20260507001606 11 154 0.0 0.0 0.00 0.00 0.00 75 1011.9
20260507000124 11 154 0.0 0.0 0.00 0.00 0.00 74 1011.9
20260506234618 11 154 0.0 0.0 0.00 0.00 0.00 74 1011.9
20260506233056 11 154 0.0 0.0 0.00 0.00 0.00 74 1011.9
20260506231554 11 161 0.0 0.0 0.00 0.00 0.00 75 1011.7
20260506230101 11 161 0.0 0.0 0.00 0.00 0.00 73 1011.6
20260506224552 11 161 0.0 0.0 0.00 0.00 0.00 72 1011.4
20260506223048 11 161 0.0 0.0 0.00 0.00 0.00 72 1011.3
20260506221555 11 161 0.0 0.0 0.00 0.00 0.00 69 1011.2
20260506220046 12 161 0.0 0.0 0.00 0.00 0.00 68 1011.1
20260506214540 12 161 0.0 0.0 0.00 0.00 0.00 68 1011.1
20260506213045 12 161 0.0 0.0 0.00 0.00 0.00 68 1011.1
20260506211641 12 161 0.0 0.0 0.00 0.00 0.00 69 1011.2
20260506210045 12 161 0.0 0.0 0.00 0.00 0.00 68 1011.1
20260506204538 12 161 0.0 0.0 0.00 0.00 0.00 67 1011.0
20260506203038 13 161 0.0 0.0 0.00 0.00 0.00 66 1010.8
20260506201540 13 161 0.0 0.0 0.00 0.00 0.00 65 1010.5
20260506200037 13 161 0.0 0.0 0.00 0.00 0.00 64 1010.3
20260506194538 14 161 0.0 0.0 0.00 0.00 0.00 62 1010.1
20260506193046 15 161 0.0 0.0 0.00 0.00 0.00 60 1010.0
20260506191535 15 161 0.0 0.0 0.00 0.00 0.00 58 1009.7
20260506190034 16 161 0.0 0.0 0.00 0.00 0.00 56 1009.6
20260506184538 16 244 0.0 0.0 0.00 0.00 0.00 54 1009.5
20260506183033 17 213 0.0 0.0 0.00 0.00 0.00 52 1009.4
20260506181542 17 11 0.0 3.2 0.00 0.00 0.00 51 1009.3
20260506180033 18 111 0.0 0.0 0.00 0.00 0.00 48 1009.2
20260506174536 19 272 0.0 0.0 0.00 0.00 0.00 45 1009.3
20260506173055 20 300 0.0 3.2 0.00 0.00 0.00 45 1009.2
20260506171540 19 236 0.0 1.6 0.00 0.00 0.00 45 1009.1
20260506170047 19 242 0.0 4.8 0.00 0.00 0.00 46 1009.1
20260506164530 20 250 0.0 3.2 0.00 0.00 0.00 43 1009.1
20260506163032 20 86 0.0 6.4 0.00 0.00 0.00 44 1009.2
20260506161528 20 246 0.0 0.0 0.00 0.00 0.00 41 1009.2
20260506160027 21 285 0.0 6.4 0.00 0.00 0.00 42 1009.2
20260506154526 21 286 0.0 0.0 0.00 0.00 0.00 44 1009.4
20260506153025 21 263 0.0 1.6 0.00 0.00 0.00 41 1009.5
20260506151522 21 292 0.0 4.8 0.00 0.00 0.00 40 1009.6
20260506150021 21 241 0.0 0.0 0.00 0.00 0.00 42 1009.6
20260506144519 20 257 0.0 3.2 0.00 0.00 0.00 43 1009.8
20260506143024 21 9 0.0 6.4 0.00 0.00 0.00 43 1010.0
20260506141513 20 171 0.0 0.0 0.00 0.00 0.00 43 1010.1
20260506140018 20 88 0.0 1.6 0.00 0.00 0.00 44 1010.3
20260506134510 20 211 0.0 4.8 0.00 0.00 0.00 45 1010.4
20260506133010 20 262 0.0 12.9 0.00 0.00 0.00 44 1010.5
20260506131510 20 238 0.0 0.0 0.00 0.00 0.00 46 1010.6
20260506130004 19 202 0.0 4.8 0.00 0.00 0.00 47 1010.7
20260506124503 19 210 0.0 1.6 0.00 0.00 0.00 47 1010.7
20260506123002 19 281 0.0 6.4 0.00 0.00 0.00 47 1010.9
20260506121559 18 298 0.0 6.4 0.00 0.00 0.00 49 1010.9
20260506120056 18 239 0.0 4.8 0.00 0.00 0.00 51 1011.0